Regional Weather Roundup
Issued by NWS

Home | Current Version | Previous Version | Text Only | Print | Product List | Glossary Off
Versions: 1 2 3 4 5 6 7 8 9 10 11 12 13 14 15 16 17 18 19 20 21 22 23 24 25 26 27 28 29 30 31 32 33 34 35 36 37 38 39 40 41 42 43 44 45 46 47 48 49 50

000
ASUS43 KIND 290809
RWRIN

WEATHER ROUNDUP FOR INDIANA
NATIONAL WEATHER SERVICE INDIANAPOLIS IN
400 AM EDT WED JUL 29 2015

NOTE: "FAIR" INDICATES FEW OR NO CLOUDS BELOW 12,000 FEET WITH NO
SIGNIFICANT WEATHER AND/OR OBSTRUCTIONS TO VISIBILITY.

* - STATION DOES NOT REPORT WEATHER SUCH AS PRECIPITATION OR FOG.

+ - STATION NOT QUALITY CONTROLLED BY THE NATIONAL WEATHER SERVICE.
    USE DATA WITH CAUTION...ESPECIALLY DEWPOINT AND RELATIVE
    HUMIDITY OBSERVATIONS.

INZ001>003-010>013-019-020-290900-
NORTHWEST INDIANA

CITY           SKY/WX    TMP DP  RH WIND       PRES   REMARKS
GARY /AIRPORT/ CLOUDY    80  75  85 W8        29.94R
KNOX *+        PTCLDY    72  72 100 CALM      29.93S
LA PORTE +     MOCLDY    74  74 100 CALM      29.94S FOG
MICHIGAN CITY+ MOCLDY    77  73  88 S3        29.93S
MONTICELLO +   MOCLDY    75  75 100 CALM      29.94R FOG
RENSSELAER +   MOCLDY    73  73 100 CALM      29.94S FOG
VALPARAISO     CLOUDY    76  73  91 CALM      29.93F

$$

LMZ046-743>745-290900-
SOUTHERN LAKE MICHIGAN

STATION/POSITION TIME  TEMP    WIND        PRES    WAVE
                       AIR SEA DIR/SP/G            HT
                 (UTC) (F)     (DEG/KT/KT) (MB)    (FT)
BURNS HARBOR     0700   78     190/  7/  9 1013.5F
MICHIGAN CITY    0700   80     150/  8/ 11   N/A
5NW MICH CITY    0800   76 75  190/  6/  8   N/A     0

$$

INZ004-005-014>016-021>024-290900-
NORTH CENTRAL INDIANA

CITY           SKY/WX    TMP DP  RH WIND       PRES   REMARKS
GOSHEN         PTCLDY    74  67  78 SE6       29.94F
LOGANSPORT +   CLEAR     70  68  94 CALM      29.95S FOG
PERU/GRISSOM   CLEAR     74  73  94 S6        29.94F
ROCHESTER +    PTCLDY    77  77 100 CALM      29.95R
SOUTH BEND     PTCLDY    77  71  82 CALM      29.94S
WARSAW +       PTCLDY    72  70  94 CALM      29.94F

$$

INZ006>009-017-018-025>027-290900-
NORTHEAST INDIANA

CITY           SKY/WX    TMP DP  RH WIND       PRES   REMARKS
ANGOLA *+      CLEAR     72  63  73 SE3       29.96F
AUBURN +       CLEAR     72  64  78 CALM      29.96F
FORT WAYNE     PTCLDY    73  69  87 CALM      29.96F
HUNTINGTON +   PTCLDY    74  72  92 CALM      29.95S

$$

INZ028-029-035-036-043>045-051>053-290900-
WEST CENTRAL INDIANA

CITY           SKY/WX    TMP DP  RH WIND       PRES   REMARKS
CRAWFORDSVL +  MOCLDY    72  72 100 CALM        N/A  FOG
GREENCASTLE +  CLEAR     73  70  88 CALM      29.96S FOG
LAFAYETTE      MOCLDY    73  72  96 CALM      29.94S FOG
TERRE HAUTE    CLEAR     75  74  96 CALM      29.95S FOG

$$

INZ030>032-037>040-046>048-054>057-064-065-290900-
CENTRAL INDIANA

CITY           SKY/WX    TMP DP  RH WIND       PRES   REMARKS
FISHERS *+     PTCLDY    72  72 100 CALM      29.96S
FRANKFORT +    CLEAR    N/A N/A N/A CALM      29.97S HAZE
GREENWOOD *+   CLEAR     72  70  94 CALM      29.97S
INDIANAPOLIS   PTCLDY    77  71  82 SE3       29.94F
-EAGLE CREEK   CLEAR     75  73  93 CALM      29.95F
KOKOMO *+      CLEAR     72  66  83 S3        29.94F
MARION +       CLEAR     71  71  98 CALM      29.96F FOG
MT COMFORT *+  CLEAR     72 N/A N/A CALM      29.97S
SHELBYVILLE    CLOUDY    74  72  93 CALM      29.95S FOG
ZIONSVILLE +   CLEAR     73  70  91 CALM      29.97S FOG

$$

INZ033-034-041-042-049-050-058-059-290900-
EAST CENTRAL INDIANA

CITY           SKY/WX    TMP DP  RH WIND       PRES   REMARKS
MUNCIE         CLEAR     74  72  93 CALM      29.96F

$$

INZ060-061-067>069-081>083-085>088-290900-
SOUTHWEST INDIANA

CITY           SKY/WX    TMP DP  RH WIND       PRES   REMARKS
EVANSVILLE     PTCLDY    75  73  93 SW6       29.95F
HUNTINGBURG *+ PTCLDY    73  70  88 S3        29.96S
WASHINGTON +   PTCLDY    73  69  87 CALM      29.94F

$$

INZ062-063-066-070>080-084-089>092-290900-
SOUTH CENTRAL AND SOUTHEAST INDIANA

CITY           SKY/WX    TMP DP  RH WIND       PRES   REMARKS
BLOOMINGTON    CLEAR     75  73  93 CALM      29.96S
MADISON *+       N/A     72  72 100 CALM      29.97F
NORTH VERNON + CLEAR     75  75 100 CALM      29.96F FOG
SEYMOUR +        N/A     73  73 100 CALM      29.95F FOG

$$




USA.gov is the U.S. government's official web portal to all federal, state and local government web resources and services.